Find Starlink 2657

NORAD ID: 48655 Int'l Des: 2021-044 Owner: SPXS Country: US Constellation: starlink operational
LEOCIRCULAR

Live-Position

3D-Globus wird geladen...

Über Starlink 2657

Beschreibung wird geladen...

Nächste Überflüge

Passes for default location (London). Set your location on the main map for personalized predictions.

Höhenverlauf

Loading altitude history...

Zweizeiliger Elementsatz

1 48655U 21044T 26126.21164301 .00007594 00000-0 25600-3 0 9995
2 48655 53.1586 206.5415 0001387 82.5802 277.5357 15.31730998272637
Epoch: 6. Mai 2026 • Age: 4 hours

Aktueller Status

Höhe 490.1 km
Geschwindigkeit 7.62 km/s
Subsatellitenpunkt -53.31°S, 109.66°E
Startdatum 26. Mai 2021
Alter 4.9 years
Typ internet

Technische Details

Klassifizierung Payload
Masse 260.00 kg
Trockenmasse 248.00 kg
Gesamtmasse 260.00 kg
Länge 0.20 m
Durchmesser 2.80 m
Spannweite 9.00 m
Form Box + pan
Hersteller SPXS
Bus-Typ Starlink
Phasenstatus In Orbit
Besitzer/Staat SPXS/US

Most Searched